User: anonymous
Location: Unspecified
(0.0000°N, 0.0000°E)
Time: 06:24:06
(UTC+02:00)
Language:

Ariane H10 - Orbit

View from above orbital plane
View from above orbital plane
View from above satellite
View from above satellite

Ground track
Ground track

The orbit data is extracted from the following two-line orbital elements,

1 19122U 88040B   14291.80834595  .00000453  00000-0  23136-2 0   501
2 19122 006.9067 207.6278 7151792 082.8526 349.2869 02.32339187174258
Epoch (UTC): 18 October 2014 19:24:01
Eccentricity: 0.7151792
inclination: 6.9067°
perigee height: 480 km
apogee height: 34923 km
right ascension of ascending node: 207.6278°
argument of perigee: 82.8526°
revolutions per day: 2.32339187
mean anomaly at epoch: 349.2869°
orbit number at epoch: 17425

The dashed part of the orbit path shows where the satellite is in the earth's shadow,  

DLR